Weather History for Mount Ida, AR

Change the Weather History Date:

Monday, January 6, 2014

  Actual Average (KHOT) Record (KHOT)
Temperature  
Mean Temperature 14 °F -  
Max Temperature 21 °F 48 °F 73 °F (1956)
Min Temperature 6 °F 29 °F 10 °F (2014)
Degree Days  
Heating Degree Days 51    
Moisture  
Dew Point -2 °F    
Average Humidity 53    
Maximum Humidity 84    
Minimum Humidity 30    
Precipitation  
Precipitation 0.00 in - - ()
Sea Level Pressure  
Sea Level Pressure 30.62 in    
Wind  
Wind Speed 6 mph (NW)    
Max Wind Speed 14 mph    
Max Gust Speed 22 mph    
Visibility 10 miles    
Events Snow    
Averages and records for this station are not official NWS values.
T = Trace of Precipitation, MM = Missing Value Source: NWS Daily Summary

Daily Weather History Graph

Daily Weather History Graph

Search for Another Location

Airport:

Trip Planner

Search our weather history database for the weather conditions in past years. The results will help you decide how hot, cold, wet, or windy it might be!

Date:

Astronomy

Jan. 06, 2014 Rise Set
Actual Time 7:21 AM CST 5:18 PM CST
Civil Twilight 6:54 AM CST 5:46 PM CST
Nautical Twilight 6:22 AM CST 6:17 PM CST
Astronomical Twilight 5:52 AM CST 6:48 PM CST
Moon 10:53 AM CST (1/6) 11:35 PM CST (1/6)
Length of Visible Light 10h 52m
Length of Day
9h 57m
Waxing Crescent, 35% of the Moon is Illuminated
Jan 6
Waxing Crescent
Jan 7
First Quarter
Jan 15
Full
Jan 23
Last Quarter
Jan 30
New

Hourly Weather History & Observations

Time (CST) Temp. Windchill Dew Point Humidity Pressure Visibility Wind Dir Wind Speed Gust Speed Precip Events Conditions
12:53 AM 14.0 °F 5.1 °F 1.9 °F 59% 30.51 in 10.0 mi Variable 5.8 mph - 0.00 in   Clear
1:53 AM 12.9 °F 2.6 °F 1.0 °F 59% 30.53 in 10.0 mi Variable 6.9 mph - N/A   Clear
2:53 AM 12.0 °F 1.5 °F 1.0 °F 61% 30.56 in 10.0 mi NNW 6.9 mph - N/A   Clear
3:53 AM 10.9 °F 1.4 °F -0.9 °F 59% 30.58 in 10.0 mi Variable 5.8 mph - 0.00 in Snow Light Snow
4:53 AM 10.0 °F -0.9 °F -2.0 °F 58% 30.57 in 10.0 mi NNW 6.9 mph - 0.00 in   Clear
5:53 AM 10.0 °F -2.9 °F -4.0 °F 53% 30.60 in 10.0 mi NW 9.2 mph 17.3 mph N/A   Clear
6:53 AM 9.0 °F -2.2 °F -2.9 °F 59% 30.62 in 10.0 mi NW 6.9 mph - N/A   Clear
7:53 AM 10.0 °F -0.9 °F -4.0 °F 53% 30.65 in 10.0 mi Variable 6.9 mph - N/A   Clear
8:53 AM 10.9 °F -1.8 °F -4.0 °F 51% 30.66 in 10.0 mi NNW 9.2 mph 19.6 mph N/A   Clear
9:53 AM 12.9 °F -1.6 °F -4.0 °F 47% 30.68 in 10.0 mi NW 12.7 mph 21.9 mph N/A   Clear
10:53 AM 16.0 °F 1.7 °F -2.0 °F 45% 30.69 in 9.0 mi NW 13.8 mph 21.9 mph 0.00 in   Clear
11:53 AM 17.1 °F 6.6 °F -2.9 °F 41% 30.65 in 10.0 mi NW 8.1 mph 20.7 mph 0.00 in   Clear
12:53 PM 19.0 °F 8.2 °F -4.0 °F 36% 30.63 in 10.0 mi WNW 9.2 mph 20.7 mph N/A   Clear
1:53 PM 19.9 °F 8.6 °F -5.1 °F 33% 30.61 in 10.0 mi NNW 10.4 mph 17.3 mph N/A   Clear
2:53 PM 21.0 °F 10.6 °F -5.1 °F 32% 30.61 in 10.0 mi WNW 9.2 mph - N/A   Clear
3:53 PM 19.9 °F 13.4 °F -7.1 °F 30% 30.62 in 10.0 mi Variable 4.6 mph 19.6 mph N/A   Clear
4:53 PM 18.0 °F 8.7 °F -6.0 °F 35% 30.61 in 10.0 mi Variable 6.9 mph - N/A   Clear
5:53 PM 16.0 °F 8.8 °F -5.1 °F 39% 30.61 in 10.0 mi NW 4.6 mph - N/A   Clear
6:53 PM 12.9 °F - -0.9 °F 54% 30.63 in 10.0 mi Calm Calm - N/A   Clear
7:53 PM 10.0 °F - -0.9 °F 61% 30.65 in 10.0 mi Calm Calm - N/A   Clear
8:53 PM 9.0 °F - 1.0 °F 70% 30.65 in 10.0 mi Calm Calm - N/A   Clear
9:53 PM 8.1 °F - 1.0 °F 73% 30.65 in 10.0 mi Calm Calm - N/A   Clear
10:53 PM 7.0 °F - 3.0 °F 84% 30.63 in 10.0 mi Calm Calm - N/A   Clear
11:53 PM 6.1 °F - 1.9 °F 83% 30.62 in 10.0 mi Calm Calm - N/A   Clear